EW4118 Weather Reports


time (UTC)temp
C
wind
direction
speed
KPH
gust
KPH
rain 1hr
cm
rain 24hr
cm
rain mn
cm
humidity
%
barometer
mb
20260504034555 11 272 0.0 0.0 0.00 0.08 0.08 75 1006.0
20260504033057 11 272 0.0 0.0 0.00 0.08 0.08 75 1006.2
20260504031622 11 272 0.0 0.0 0.00 0.08 0.08 75 1006.1
20260504030054 11 272 0.0 0.0 0.00 0.08 0.08 75 1006.1
20260504024553 11 272 0.0 0.0 0.00 0.08 0.08 74 1005.9
20260504023053 11 272 0.0 0.0 0.00 0.08 0.08 74 1005.9
20260504021600 12 272 0.0 0.0 0.00 0.08 0.08 75 1005.8
20260504020052 12 272 0.0 0.0 0.00 0.08 0.08 74 1005.8
20260504014552 13 272 0.0 0.0 0.00 0.08 0.08 73 1005.7
20260504013055 13 272 0.0 0.0 0.00 0.08 0.08 71 1005.6
20260504011554 15 272 0.0 0.0 0.00 0.08 0.08 66 1005.5
20260504010057 16 272 0.0 0.0 0.00 0.08 0.08 62 1005.5
20260504004549 17 272 0.0 0.0 0.00 0.08 0.08 59 1005.2
20260504003050 19 272 0.0 3.2 0.00 0.08 0.08 55 1005.2
20260504001605 20 273 1.6 6.4 0.00 0.08 0.08 46 1005.4
20260504000046 20 256 1.6 4.8 0.00 0.08 0.08 44 1005.5
20260503234546 21 272 3.2 6.4 0.00 0.08 0.08 42 1005.4
20260503233044 21 263 6.4 17.7 0.00 0.08 0.08 42 1005.5
20260503231549 21 291 4.8 12.9 0.00 0.08 0.08 41 1005.6
20260503230041 20 298 6.4 17.7 0.00 0.08 0.08 42 1005.7
20260503224542 21 223 6.4 20.9 0.00 0.08 0.08 42 1005.9
20260503223042 21 269 6.4 17.7 0.00 0.08 0.08 43 1005.9
20260503221537 20 269 6.4 17.7 0.00 0.08 0.08 43 1006.0
20260503220039 20 190 6.4 14.5 0.00 0.08 0.08 44 1006.0
20260503214541 20 238 6.4 20.9 0.00 0.08 0.08 46 1006.0
20260503213048 20 272 4.8 17.7 0.00 0.08 0.08 47 1006.2
20260503211533 20 252 4.8 17.7 0.00 0.08 0.08 44 1006.4
20260503210026 19 295 6.4 14.5 0.00 0.08 0.08 45 1006.6
20260503204528 19 309 6.4 20.9 0.00 0.08 0.08 45 1006.8
20260503203023 19 288 6.4 19.3 0.00 0.08 0.08 48 1007.0
20260503201522 19 244 6.4 19.3 0.00 0.08 0.08 48 1007.3
20260503200014 18 191 4.8 25.7 0.00 0.08 0.08 48 1007.5
20260503194516 18 254 8.0 27.4 0.00 0.08 0.08 47 1007.8
20260503193008 18 224 9.7 27.4 0.00 0.08 0.08 47 1008.2
20260503191506 17 186 8.0 29.0 0.00 0.08 0.08 48 1008.4
20260503190004 17 250 4.8 14.5 0.00 0.08 0.08 55 1008.4
20260503184637 17 208 6.4 17.7 0.00 0.08 0.08 57 1008.8
20260503183106 16 230 3.2 25.7 0.00 0.08 0.08 58 1009.2
20260503181556 16 232 4.8 19.3 0.00 0.08 0.08 60 1009.3
20260503180055 16 71 6.4 20.9 0.00 0.08 0.08 57 1009.2
20260503174610 16 316 8.0 17.7 0.00 0.08 0.08 54 1009.3
20260503173114 16 271 4.8 19.3 0.00 0.08 0.08 54 1009.6
20260503171548 16 236 4.8 14.5 0.00 0.08 0.08 55 1009.7
20260503081518 7 230 0.0 6.4 0.00 0.00 0.00 59 1014.9
20260503071513 7 243 1.6 4.8 0.00 0.00 0.00 60 1015.2
20260503054600 7 225 0.0 4.8 0.00 0.00 0.00 61 1015.8
20260503053054 6 257 0.0 6.4 0.00 0.00 0.00 64 1015.9
20260503051553 6 261 0.0 4.8 0.00 0.00 0.00 66 1016.0
20260503050047 5 244 0.0 3.2 0.00 0.00 0.00 72 1016.2
20260503044545 5 247 0.0 3.2 0.00 0.00 0.00 75 1016.3
20260503043046 5 246 0.0 1.6 0.00 0.00 0.00 75 1016.4
20260503041543 5 247 0.0 3.2 0.00 0.00 0.00 76 1016.5
20260503040042 5 246 0.0 1.6 0.00 0.00 0.00 76 1016.6